Location: Wald
(31.7579°N, 86.6655°W)
Time: 11:47:25
(UTC+00:00)

Centaur AC-72 - Pass Details

Date: 14 July 2020
Orbit: 1129 x 35227 km, 19.1° (Epoch: 07 August)

Event Time Altitude Azimuth Distance (km) Brightness Sun altitude
Exits shadow 08:18:19 28° 162° (SSE) 2,216 4.0 -26.3°
Drops below altitude 10° 08:22:16 10° 118° (ESE) 2,996 5.1 -25.7°
Sets 08:24:56 0° 105° (ESE) 4,031 6.0 -25.4°
